Location: Mascot Post Office (historical)
(40.2645°N, 99.5462°W)
Time: 02:46:30
(UTC+00:00)

TSX-5 - Pass Details

Date: 14 July 2020
Orbit: 404 x 1328 km, 68.9° (Epoch: 14 August)

Event Time Altitude Azimuth Distance (km) Brightness Sun altitude
Rises 03:18:43 0° 337° (NNW) 2,563 8.5 -11.8°
Reaches altitude 10° 03:20:40 10° 341° (NNW) 1,766 7.4 -12.1°
Maximum altitude 03:24:32 63° 63° (ENE) 679 4.1 -12.6°
Enters shadow 03:27:52 19° 141° (SE) 1,617 5.5 -13.1°
